Tracking 28091 objects as of 30-Sep-2023
HD Live streaming from Space Station
objects crossing your sky now

COSMOS 2209

Track COSMOS 2209 now!
COSMOS 2209 is classified as:


NORAD ID: 22112
Int'l Code: 1992-059A
Perigee: 35,768.6 km
Apogee: 35,811.0 km
Inclination: 14.3 °
Period: 1,435.9 minutes
Semi major axis: 42160 km
RCS: 5.0119 m2 (large)
Launch date: September 10, 1992
Source: Commonwealth of Independent States (former USSR) (CIS)
Launch site: TYURATAM MISSILE AND SPACE COMPLEX (TTMTR)
Your satellite tracking list
Your tracking list is empty




NASA's NSSDC Master Catalog

Two Line Element Set (TLE):
1 22112U 92059A   23272.45725344  .00000040  00000-0  00000-0 0  9997
2 22112  14.2514 350.0778 0005029 319.7459  46.8269  1.00285975113671
Source of the keplerian elements: AFSPC